Terminal Aerodrome Forecast
Issued by NWS Omaha/Valley, NE

Home | Current Version | Previous Version | Graphics & Text | Print | Product List | Glossary On
Versions: 1 2 3 4 5 6 7 8 9 10 11 12 13 14 15 16 17 18 19 20 21 22 23 24 25
000
FTUS43 KOAX 020520
TAFOFK
TAF
KOFK 020520Z 0206/0306 VRB04KT P6SM SCT200
     FM021400 16010KT P6SM SCT100 BKN200
     FM021700 16015G23KT P6SM BKN100
     FM030300 16013G23KT P6SM SCT015 SCT080=

USA.gov is the U.S. government's official web portal to all federal, state and local government web resources and services.